Time,TemperatureF,DewpointF,PressureIn,WindDirection,WindDirectionDegrees,WindSpeedMPH,WindSpeedGustMPH,Humidity,HourlyPrecipIn,Conditions,Clouds,dailyrainin,SoftwareType,DateUTC
2013-01-16 00:02:00,28.6,16.5,30.10,ESE,120,5.4,6.3,60,0.00,,OVC150,0.00,VWS V14.01,2013-01-16 05:02:00,
2013-01-16 00:03:00,28.6,16.5,30.10,East,85,4.0,5.4,60,0.00,,OVC150,0.00,VWS V14.01,2013-01-16 05:03:00,
2013-01-16 00:04:00,28.6,16.9,30.10,East,87,3.1,4.0,61,0.00,,OVC150,0.00,VWS V14.01,2013-01-16 05:04:00,
2013-01-16 00:09:00,28.6,16.9,30.10,ENE,69,2.7,2.7,61,0.00,,OVC150,0.00,VWS V14.01,2013-01-16 05:09:00,
2013-01-16 00:14:00,28.6,16.9,30.10,East,83,4.0,5.4,61,0.00,,OVC150,0.00,VWS V14.01,2013-01-16 05:14:00,
2013-01-16 00:19:00,28.6,16.9,30.07,East,88,3.1,4.0,61,0.00,,OVC150,0.00,VWS V14.01,2013-01-16 05:19:00,
2013-01-16 00:25:00,28.8,17.0,30.07,ENE,62,3.1,3.6,61,0.00,,OVC150,0.00,VWS V14.01,2013-01-16 05:25:00,
2013-01-16 00:30:00,28.6,16.9,30.07,ENE,59,3.6,3.6,61,0.00,,OVC150,0.00,VWS V14.01,2013-01-16 05:30:00,
2013-01-16 00:35:00,28.8,17.4,30.07,East,81,4.0,5.4,62,0.00,,OVC140,0.00,VWS V14.01,2013-01-16 05:35:00,
2013-01-16 00:40:00,28.6,16.9,30.07,ENE,67,5.8,5.8,61,0.00,,OVC140,0.00,VWS V14.01,2013-01-16 05:40:00,
2013-01-16 00:45:00,28.6,16.9,30.07,NE,49,6.3,6.3,61,0.00,,OVC140,0.00,VWS V14.01,2013-01-16 05:45:00,
2013-01-16 00:50:00,28.8,17.0,30.07,ENE,71,4.9,4.9,61,0.00,,OVC140,0.00,VWS V14.01,2013-01-16 05:50:00,
2013-01-16 00:55:00,28.6,16.9,30.07,NE,39,3.6,3.6,61,0.00,,OVC140,0.00,VWS V14.01,2013-01-16 05:55:00,
2013-01-16 01:00:00,28.6,16.9,30.07,NE,48,4.5,5.8,61,0.00,,OVC140,0.00,VWS V14.01,2013-01-16 06:00:00,
2013-01-16 01:05:00,28.4,16.7,30.04,ENE,60,4.9,5.4,61,0.00,,OVC140,0.00,VWS V14.01,2013-01-16 06:05:00,
2013-01-16 01:10:00,28.6,16.9,30.04,NE,36,5.8,5.8,61,0.00,,OVC140,0.00,VWS V14.01,2013-01-16 06:10:00,
2013-01-16 01:15:00,28.6,16.9,30.04,NNE,27,5.4,5.4,61,0.00,,OVC140,0.00,VWS V14.01,2013-01-16 06:15:00,
2013-01-16 01:20:00,28.6,17.2,30.04,ENE,63,4.9,5.4,62,0.00,,OVC140,0.00,VWS V14.01,2013-01-16 06:20:00,
2013-01-16 01:25:00,28.4,17.1,30.04,East,80,3.6,4.0,62,0.00,,OVC140,0.00,VWS V14.01,2013-01-16 06:25:00,
2013-01-16 01:30:00,28.4,17.1,30.04,SE,126,5.4,5.8,62,0.00,,OVC140,0.00,VWS V14.01,2013-01-16 06:30:00,
2013-01-16 01:35:00,28.4,17.1,30.04,NE,54,2.7,3.6,62,0.00,,OVC150,0.00,VWS V14.01,2013-01-16 06:35:00,
2013-01-16 01:40:00,28.4,17.1,30.04,East,80,5.4,5.8,62,0.00,,OVC150,0.00,VWS V14.01,2013-01-16 06:40:00,
2013-01-16 01:45:00,28.4,17.4,30.04,ENE,65,4.0,5.4,63,0.00,,OVC150,0.00,VWS V14.01,2013-01-16 06:45:00,
2013-01-16 01:50:00,28.4,17.4,30.04,East,99,3.1,4.5,63,0.00,,OVC150,0.00,VWS V14.01,2013-01-16 06:50:00,
2013-01-16 01:56:00,28.4,17.4,30.04,ENE,77,4.0,4.9,63,0.00,,OVC150,0.00,VWS V14.01,2013-01-16 06:56:00,
2013-01-16 02:01:00,28.4,17.4,30.04,ESE,112,4.0,4.0,63,0.00,,OVC150,0.00,VWS V14.01,2013-01-16 07:01:00,
2013-01-16 02:06:00,28.4,17.4,30.04,East,90,2.7,3.1,63,0.00,,OVC150,0.00,VWS V14.01,2013-01-16 07:06:00,
2013-01-16 02:11:00,28.4,17.4,30.04,ESE,116,2.7,4.9,63,0.00,,OVC150,0.00,VWS V14.01,2013-01-16 07:11:00,
2013-01-16 02:16:00,28.6,17.6,30.04,ESE,111,5.4,5.4,63,0.00,,OVC150,0.00,VWS V14.01,2013-01-16 07:16:00,
2013-01-16 02:21:00,28.6,17.6,30.04,East,83,6.3,6.7,63,0.00,,OVC150,0.00,VWS V14.01,2013-01-16 07:21:00,
2013-01-16 02:26:00,28.6,17.6,30.04,East,85,2.7,2.7,63,0.00,,OVC150,0.00,VWS V14.01,2013-01-16 07:26:00,
2013-01-16 02:31:00,28.6,18.0,30.04,ENE,75,2.7,2.7,64,0.00,,OVC150,0.00,VWS V14.01,2013-01-16 07:31:00,
2013-01-16 02:36:00,28.6,18.0,30.04,ENE,70,3.6,3.6,64,0.00,,OVC150,0.00,VWS V14.01,2013-01-16 07:36:00,
2013-01-16 02:41:00,28.6,18.0,30.04,East,88,2.7,2.7,64,0.00,,OVC150,0.00,VWS V14.01,2013-01-16 07:41:00,
2013-01-16 02:46:00,28.6,18.0,30.04,ENE,59,2.7,5.4,64,0.00,,OVC150,0.00,VWS V14.01,2013-01-16 07:46:00,
2013-01-16 02:51:00,28.6,18.0,30.04,East,91,3.6,3.6,64,0.00,,OVC150,0.00,VWS V14.01,2013-01-16 07:51:00,
2013-01-16 02:56:00,28.6,18.0,30.04,East,99,4.9,5.4,64,0.00,,OVC150,0.00,VWS V14.01,2013-01-16 07:56:00,
2013-01-16 03:01:00,28.8,18.1,30.04,East,88,4.9,4.9,64,0.00,,OVC150,0.00,VWS V14.01,2013-01-16 08:01:00,
2013-01-16 03:06:00,28.8,18.1,30.01,ENE,68,4.0,4.0,64,0.00,,OVC150,0.00,VWS V14.01,2013-01-16 08:06:00,
2013-01-16 03:11:00,28.8,18.1,30.01,ESE,114,3.1,3.6,64,0.00,,OVC150,0.00,VWS V14.01,2013-01-16 08:11:00,
2013-01-16 03:16:00,28.8,18.1,30.01,ESE,103,3.1,5.8,64,0.00,,OVC150,0.00,VWS V14.01,2013-01-16 08:16:00,
2013-01-16 03:21:00,28.8,18.5,30.01,ESE,106,3.1,3.1,65,0.00,,OVC150,0.00,VWS V14.01,2013-01-16 08:21:00,
2013-01-16 03:27:00,28.8,18.5,30.01,ESE,106,3.6,3.6,65,0.00,,OVC150,0.00,VWS V14.01,2013-01-16 08:27:00,
2013-01-16 03:32:00,28.8,18.5,30.01,East,89,3.6,4.0,65,0.00,,OVC150,0.00,VWS V14.01,2013-01-16 08:32:00,
2013-01-16 03:37:00,28.8,18.5,30.01,ESE,110,2.2,3.6,65,0.00,,OVC150,0.00,VWS V14.01,2013-01-16 08:37:00,
2013-01-16 03:42:00,28.8,18.5,30.01,ESE,103,3.1,3.1,65,0.00,,OVC150,0.00,VWS V14.01,2013-01-16 08:42:00,
2013-01-16 03:47:00,28.9,18.7,30.01,ESE,113,3.6,5.4,65,0.00,,OVC150,0.00,VWS V14.01,2013-01-16 08:47:00,
2013-01-16 03:52:00,28.9,18.7,30.01,ESE,107,4.0,4.0,65,0.00,,OVC150,0.00,VWS V14.01,2013-01-16 08:52:00,
2013-01-16 03:57:00,28.9,18.7,30.01,East,100,3.1,3.6,65,0.00,,OVC150,0.00,VWS V14.01,2013-01-16 08:57:00,
2013-01-16 04:02:00,28.9,18.7,30.01,East,101,2.7,2.7,65,0.00,,OVC150,0.00,VWS V14.01,2013-01-16 09:02:00,
2013-01-16 04:07:00,28.9,18.7,29.98,East,101,3.6,3.6,65,0.00,,OVC150,0.00,VWS V14.01,2013-01-16 09:07:00,
2013-01-16 04:12:00,28.9,18.7,29.98,SE,124,0.0,0.0,65,0.00,,OVC150,0.00,VWS V14.01,2013-01-16 09:12:00,
2013-01-16 04:17:00,28.9,19.0,29.98,ESE,122,3.6,3.6,66,0.00,,OVC150,0.00,VWS V14.01,2013-01-16 09:17:00,
2013-01-16 04:22:00,28.9,18.7,29.98,ESE,119,3.6,4.9,65,0.00,,OVC150,0.00,VWS V14.01,2013-01-16 09:22:00,
2013-01-16 04:27:00,28.9,19.0,29.98,ESE,114,2.7,2.7,66,0.00,,OVC150,0.00,VWS V14.01,2013-01-16 09:27:00,
2013-01-16 04:32:00,28.9,19.0,29.98,SE,128,2.7,2.7,66,0.00,,OVC080,0.00,VWS V14.01,2013-01-16 09:32:00,
2013-01-16 04:37:00,28.9,19.0,29.98,ESE,119,2.7,2.7,66,0.00,,OVC080,0.00,VWS V14.01,2013-01-16 09:37:00,
2013-01-16 04:42:00,28.9,19.0,29.98,SE,145,3.1,3.1,66,0.00,,OVC080,0.00,VWS V14.01,2013-01-16 09:42:00,
2013-01-16 04:47:00,28.9,19.0,29.98,SE,138,2.2,3.1,66,0.00,,OVC080,0.00,VWS V14.01,2013-01-16 09:47:00,
2013-01-16 04:52:00,28.9,19.0,29.95,SE,138,2.7,3.6,66,0.00,,OVC080,0.00,VWS V14.01,2013-01-16 09:52:00,
2013-01-16 04:57:00,28.9,19.0,29.95,SE,138,0.0,0.0,66,0.00,,OVC080,0.00,VWS V14.01,2013-01-16 09:57:00,
2013-01-16 05:02:00,28.9,19.0,29.95,SE,138,2.7,3.1,66,0.00,,OVC080,0.00,VWS V14.01,2013-01-16 10:02:00,
2013-01-16 05:07:00,28.9,19.0,29.95,SE,138,2.2,2.7,66,0.00,,OVC080,0.00,VWS V14.01,2013-01-16 10:07:00,
2013-01-16 05:12:00,28.9,19.0,29.95,SE,138,3.1,3.6,66,0.00,,OVC080,0.00,VWS V14.01,2013-01-16 10:12:00,
2013-01-16 05:17:00,28.9,19.0,29.95,SE,138,3.6,3.6,66,0.00,,OVC080,0.00,VWS V14.01,2013-01-16 10:17:00,
2013-01-16 05:23:00,28.9,19.0,29.95,SE,138,2.2,2.2,66,0.00,,OVC080,0.00,VWS V14.01,2013-01-16 10:23:00,
2013-01-16 05:28:00,28.9,19.0,29.95,SE,138,0.0,0.0,66,0.00,,OVC080,0.00,VWS V14.01,2013-01-16 10:28:00,
2013-01-16 05:33:00,28.9,19.0,29.95,SE,138,0.0,0.0,66,0.00,,OVC080,0.00,VWS V14.01,2013-01-16 10:33:00,
2013-01-16 05:38:00,29.1,19.5,29.95,SE,138,0.0,0.0,67,0.00,,OVC080,0.00,VWS V14.01,2013-01-16 10:38:00,
2013-01-16 05:43:00,28.9,19.4,29.95,SE,138,0.0,0.0,67,0.00,,OVC080,0.00,VWS V14.01,2013-01-16 10:43:00,
2013-01-16 05:48:00,29.1,19.5,29.95,SE,138,0.0,0.0,67,0.00,,OVC080,0.00,VWS V14.01,2013-01-16 10:48:00,
2013-01-16 05:53:00,29.1,19.5,29.95,SE,138,0.0,0.0,67,0.00,,OVC080,0.00,VWS V14.01,2013-01-16 10:53:00,
2013-01-16 05:58:00,29.1,19.5,29.95,SE,138,0.0,0.0,67,0.00,,OVC080,0.00,VWS V14.01,2013-01-16 10:58:00,
2013-01-16 06:03:00,29.1,19.5,29.95,SE,138,0.0,0.0,67,0.00,,OVC080,0.00,VWS V14.01,2013-01-16 11:03:00,
2013-01-16 06:08:00,29.1,19.5,29.92,SE,138,3.1,3.1,67,0.00,,OVC080,0.00,VWS V14.01,2013-01-16 11:08:00,
2013-01-16 06:13:00,29.1,19.5,29.92,SE,138,3.1,3.1,67,0.00,,OVC080,0.00,VWS V14.01,2013-01-16 11:13:00,
2013-01-16 06:18:00,29.1,19.5,29.92,SE,138,0.0,0.0,67,0.00,,OVC080,0.00,VWS V14.01,2013-01-16 11:18:00,
2013-01-16 06:23:00,29.1,19.5,29.95,SE,138,0.0,0.0,67,0.00,,OVC080,0.00,VWS V14.01,2013-01-16 11:23:00,
2013-01-16 06:28:00,29.1,19.9,29.95,SE,138,0.0,0.0,68,0.00,,OVC080,0.00,VWS V14.01,2013-01-16 11:28:00,
2013-01-16 06:33:00,29.1,19.9,29.95,SE,138,0.0,2.7,68,0.00,,OVC080,0.00,VWS V14.01,2013-01-16 11:33:00,
2013-01-16 06:38:00,29.1,19.9,29.95,SE,138,2.7,2.7,68,0.00,,OVC080,0.00,VWS V14.01,2013-01-16 11:38:00,
2013-01-16 06:43:00,29.3,20.1,29.95,SE,138,2.7,2.7,68,0.00,,OVC080,0.00,VWS V14.01,2013-01-16 11:43:00,
2013-01-16 06:48:00,29.3,20.1,29.95,SE,138,0.0,0.0,68,0.00,,OVC080,0.00,VWS V14.01,2013-01-16 11:48:00,
2013-01-16 06:53:00,29.1,19.9,29.92,SE,138,0.0,0.0,68,0.00,,OVC080,0.00,VWS V14.01,2013-01-16 11:53:00,
2013-01-16 06:58:00,29.3,20.1,29.92,SE,138,0.0,2.2,68,0.00,,OVC080,0.00,VWS V14.01,2013-01-16 11:58:00,
2013-01-16 07:03:00,29.3,20.1,29.92,SE,138,0.0,0.0,68,0.00,,OVC085,0.00,VWS V14.01,2013-01-16 12:03:00,
2013-01-16 07:08:00,29.3,20.1,29.95,SE,138,0.0,0.0,68,0.00,,OVC085,0.00,VWS V14.01,2013-01-16 12:08:00,
2013-01-16 07:13:00,29.3,20.1,29.95,SE,138,0.0,0.0,68,0.00,,OVC085,0.00,VWS V14.01,2013-01-16 12:13:00,
2013-01-16 07:18:00,29.3,20.1,29.95,SE,138,2.2,2.7,68,0.00,,OVC085,0.00,VWS V14.01,2013-01-16 12:18:00,
2013-01-16 07:23:00,29.3,20.1,29.92,SE,138,0.0,0.0,68,0.00,,OVC085,0.00,VWS V14.01,2013-01-16 12:23:00,
2013-01-16 07:28:00,29.3,20.1,29.92,SE,138,0.0,0.0,68,0.00,,OVC085,0.00,VWS V14.01,2013-01-16 12:28:00,
2013-01-16 07:34:00,29.1,19.9,29.92,SE,138,2.2,2.7,68,0.00,,OVC080,0.00,VWS V14.01,2013-01-16 12:34:00,
2013-01-16 07:39:00,29.3,20.4,29.92,SE,138,0.0,2.7,69,0.00,,OVC080,0.00,VWS V14.01,2013-01-16 12:39:00,
2013-01-16 07:44:00,29.1,20.2,29.92,SE,138,2.7,2.7,69,0.00,,OVC080,0.00,VWS V14.01,2013-01-16 12:44:00,
2013-01-16 07:49:00,29.1,20.2,29.92,SE,138,3.6,3.6,69,0.00,,OVC080,0.00,VWS V14.01,2013-01-16 12:49:00,
2013-01-16 07:54:00,29.1,20.2,29.92,SSE,147,2.7,4.0,69,0.00,,OVC080,0.00,VWS V14.01,2013-01-16 12:54:00,
2013-01-16 07:59:00,29.1,20.2,29.92,SSE,164,3.1,3.1,69,0.00,,OVC080,0.00,VWS V14.01,2013-01-16 12:59:00,
2013-01-16 08:04:00,29.1,20.2,29.92,SSE,152,6.3,6.3,69,0.00,,OVC080,0.00,VWS V14.01,2013-01-16 13:04:00,
2013-01-16 08:09:00,29.3,20.4,29.92,SSE,160,3.1,3.1,69,0.00,,OVC080,0.00,VWS V14.01,2013-01-16 13:09:00,
2013-01-16 08:14:00,29.3,20.1,29.92,SSE,160,3.1,3.6,68,0.00,,OVC080,0.00,VWS V14.01,2013-01-16 13:14:00,
2013-01-16 08:19:00,29.3,20.1,29.92,SSE,160,2.7,3.6,68,0.00,,OVC080,0.00,VWS V14.01,2013-01-16 13:19:00,
2013-01-16 08:24:00,29.3,20.1,29.92,SSE,160,3.1,3.6,68,0.00,,OVC080,0.00,VWS V14.01,2013-01-16 13:24:00,
2013-01-16 08:29:00,29.5,20.2,29.92,SSE,160,3.6,3.6,68,0.00,,OVC080,0.00,VWS V14.01,2013-01-16 13:29:00,
2013-01-16 08:34:00,29.5,20.2,29.92,SSE,160,4.0,4.0,68,0.00,,OVC080,0.00,VWS V14.01,2013-01-16 13:34:00,
2013-01-16 08:39:00,29.5,20.2,29.92,SSE,160,4.0,4.0,68,0.00,,OVC080,0.00,VWS V14.01,2013-01-16 13:39:00,
2013-01-16 08:44:00,29.5,20.2,29.92,SSE,160,2.7,2.7,68,0.00,,OVC080,0.00,VWS V14.01,2013-01-16 13:44:00,
2013-01-16 08:49:00,29.5,20.6,29.89,SSE,160,3.6,3.6,69,0.00,,OVC080,0.00,VWS V14.01,2013-01-16 13:49:00,
2013-01-16 08:54:00,29.7,20.4,29.89,SSE,161,4.0,4.9,68,0.00,,OVC080,0.00,VWS V14.01,2013-01-16 13:54:00,
2013-01-16 08:59:00,29.7,20.4,29.89,SSE,161,4.0,4.9,68,0.00,,OVC080,0.00,VWS V14.01,2013-01-16 13:59:00,
2013-01-16 09:04:00,29.7,20.4,29.89,SSE,161,3.1,3.1,68,0.00,,OVC075,0.00,VWS V14.01,2013-01-16 14:04:00,
2013-01-16 09:09:00,29.8,20.6,29.89,SSE,161,3.6,3.6,68,0.00,,OVC075,0.00,VWS V14.01,2013-01-16 14:09:00,
2013-01-16 09:14:00,29.8,20.6,29.89,SSE,161,3.1,3.6,68,0.00,,OVC075,0.00,VWS V14.01,2013-01-16 14:14:00,
2013-01-16 09:19:00,30.0,20.8,29.89,SSE,161,3.6,3.6,68,0.00,,OVC075,0.00,VWS V14.01,2013-01-16 14:19:00,
2013-01-16 09:24:00,30.0,20.8,29.89,SSE,161,4.0,4.0,68,0.00,,OVC075,0.00,VWS V14.01,2013-01-16 14:24:00,
2013-01-16 09:29:00,30.0,20.8,29.89,SSE,161,4.0,4.9,68,0.00,,OVC075,0.00,VWS V14.01,2013-01-16 14:29:00,
2013-01-16 09:34:00,30.2,20.9,29.89,SSE,156,6.3,6.3,68,0.00,,BKN200,0.00,VWS V14.01,2013-01-16 14:34:00,
2013-01-16 09:39:00,30.2,20.9,29.89,SE,135,5.4,6.7,68,0.00,,BKN200,0.00,VWS V14.01,2013-01-16 14:39:00,
2013-01-16 09:44:00,30.2,20.9,29.89,SSE,164,3.1,5.4,68,0.00,,BKN200,0.00,VWS V14.01,2013-01-16 14:44:00,
2013-01-16 09:49:00,30.4,21.1,29.86,SSE,166,2.7,4.0,68,0.00,,BKN200,0.00,VWS V14.01,2013-01-16 14:49:00,
2013-01-16 09:54:00,30.4,21.1,29.86,South,183,2.7,5.8,68,0.00,,BKN200,0.00,VWS V14.01,2013-01-16 14:54:00,
2013-01-16 09:59:00,30.6,21.3,29.86,SSE,153,5.4,5.8,68,0.00,,BKN200,0.00,VWS V14.01,2013-01-16 14:59:00,
2013-01-16 10:04:00,30.6,20.9,29.86,SSE,151,4.9,8.3,67,0.00,,BKN200,0.00,VWS V14.01,2013-01-16 15:04:00,
2013-01-16 10:09:00,30.7,21.1,29.86,SSE,165,4.9,4.9,67,0.00,,BKN200,0.00,VWS V14.01,2013-01-16 15:09:00,
2013-01-16 10:14:00,30.9,21.3,29.86,SSE,150,3.1,3.6,67,0.00,,BKN200,0.00,VWS V14.01,2013-01-16 15:14:00,
2013-01-16 10:19:00,30.9,21.3,29.83,South,184,4.0,4.9,67,0.00,,BKN200,0.00,VWS V14.01,2013-01-16 15:19:00,
2013-01-16 10:24:00,31.1,21.4,29.83,SSE,160,2.7,3.1,67,0.00,,BKN200,0.00,VWS V14.01,2013-01-16 15:24:00,
2013-01-16 10:29:00,31.3,21.6,29.83,SSE,165,3.6,4.0,67,0.00,,BKN200,0.00,VWS V14.01,2013-01-16 15:29:00,
2013-01-16 10:35:00,31.5,21.8,29.83,SSE,160,2.2,4.0,67,0.00,,BKN250,0.00,VWS V14.01,2013-01-16 15:35:00,
2013-01-16 10:40:00,31.5,22.1,29.83,SSE,162,3.6,3.6,68,0.00,,BKN250,0.00,VWS V14.01,2013-01-16 15:40:00,
2013-01-16 10:45:00,31.6,22.3,29.83,SSE,157,2.7,4.0,68,0.00,,BKN250,0.00,VWS V14.01,2013-01-16 15:45:00,
2013-01-16 10:50:00,31.8,22.5,29.83,South,174,3.1,3.1,68,0.00,,BKN250,0.00,VWS V14.01,2013-01-16 15:50:00,
2013-01-16 10:55:00,32.0,22.6,29.83,SSW,193,2.7,2.7,68,0.00,,BKN250,0.00,VWS V14.01,2013-01-16 15:55:00,
2013-01-16 11:00:00,32.2,22.8,29.83,South,175,3.6,4.9,68,0.00,,BKN250,0.00,VWS V14.01,2013-01-16 16:00:00,
2013-01-16 11:05:00,32.2,22.8,29.83,South,169,4.0,4.0,68,0.00,,BKN250,0.00,VWS V14.01,2013-01-16 16:05:00,
2013-01-16 11:10:00,32.4,23.3,29.83,SSW,194,4.0,4.0,69,0.00,,BKN250,0.00,VWS V14.01,2013-01-16 16:10:00,
2013-01-16 11:15:00,32.5,23.5,29.83,SSE,166,4.0,4.0,69,0.00,,BKN250,0.00,VWS V14.01,2013-01-16 16:15:00,
2013-01-16 11:20:00,32.5,23.5,29.80,SSE,162,2.7,3.1,69,0.00,,BKN250,0.00,VWS V14.01,2013-01-16 16:20:00,
2013-01-16 11:25:00,32.5,23.5,29.80,SSE,161,2.7,2.7,69,0.00,,BKN250,0.00,VWS V14.01,2013-01-16 16:25:00,
2013-01-16 11:30:00,32.7,23.7,29.80,SSE,161,2.2,2.7,69,0.00,,BKN250,0.00,VWS V14.01,2013-01-16 16:30:00,
2013-01-16 11:35:00,32.9,23.9,29.80,SSW,195,3.6,4.0,69,0.00,,BKN200,0.00,VWS V14.01,2013-01-16 16:35:00,
2013-01-16 11:40:00,33.1,24.0,29.80,South,188,3.1,4.0,69,0.00,,BKN200,0.00,VWS V14.01,2013-01-16 16:40:00,
2013-01-16 11:45:00,33.3,24.2,29.80,South,176,4.9,4.9,69,0.00,,BKN200,0.00,VWS V14.01,2013-01-16 16:45:00,
2013-01-16 11:50:00,33.3,24.2,29.78,SW,214,5.8,5.8,69,0.00,,BKN200,0.00,VWS V14.01,2013-01-16 16:50:00,
2013-01-16 11:55:00,33.4,24.4,29.78,SW,235,3.1,4.0,69,0.00,,BKN200,0.00,VWS V14.01,2013-01-16 16:55:00,
2013-01-16 12:00:00,33.4,24.0,29.78,WSW,243,3.1,3.6,68,0.00,,BKN200,0.00,VWS V14.01,2013-01-16 17:00:00,
2013-01-16 12:05:00,33.6,24.2,29.78,SW,225,2.7,3.1,68,0.00,,BKN200,0.00,VWS V14.01,2013-01-16 17:05:00,
2013-01-16 12:10:00,33.6,24.2,29.78,SW,214,4.0,4.0,68,0.00,,BKN200,0.00,VWS V14.01,2013-01-16 17:10:00,
2013-01-16 12:15:00,33.8,24.0,29.78,SSW,209,6.3,6.3,67,0.00,,BKN200,0.00,VWS V14.01,2013-01-16 17:15:00,
2013-01-16 12:20:00,33.8,24.0,29.78,SW,232,4.0,4.9,67,0.00,,BKN200,0.00,VWS V14.01,2013-01-16 17:20:00,
2013-01-16 12:25:00,34.0,24.2,29.78,SW,225,4.0,5.4,67,0.00,,BKN200,0.00,VWS V14.01,2013-01-16 17:25:00,
2013-01-16 12:30:00,34.0,24.2,29.78,WSW,237,5.8,5.8,67,0.00,,BKN200,0.00,VWS V14.01,2013-01-16 17:30:00,
2013-01-16 12:35:00,34.3,24.5,29.78,WSW,245,3.6,5.4,67,0.00,,BKN200,0.00,VWS V14.01,2013-01-16 17:35:00,
2013-01-16 12:40:00,34.7,24.9,29.78,NW,310,6.3,6.3,67,0.00,,BKN200,0.00,VWS V14.01,2013-01-16 17:40:00,
2013-01-16 12:45:00,34.9,24.7,29.78,WSW,244,3.1,3.6,66,0.00,,BKN200,0.00,VWS V14.01,2013-01-16 17:45:00,
2013-01-16 12:50:00,34.9,24.3,29.78,West,277,4.0,4.0,65,0.00,,BKN200,0.00,VWS V14.01,2013-01-16 17:50:00,
2013-01-16 12:55:00,34.9,24.3,29.78,West,259,2.7,3.1,65,0.00,,BKN200,0.00,VWS V14.01,2013-01-16 17:55:00,
2013-01-16 13:00:00,34.9,24.0,29.78,WSW,248,4.0,6.3,64,0.00,,BKN200,0.00,VWS V14.01,2013-01-16 18:00:00,
2013-01-16 13:05:00,34.9,24.0,29.78,West,267,5.4,5.8,64,0.00,,BKN200,0.00,VWS V14.01,2013-01-16 18:05:00,
2013-01-16 13:10:00,34.9,24.0,29.78,WSW,245,3.6,7.6,64,0.00,,BKN200,0.00,VWS V14.01,2013-01-16 18:10:00,
2013-01-16 13:15:00,34.9,24.0,29.78,WSW,247,2.2,2.7,64,0.00,,BKN200,0.00,VWS V14.01,2013-01-16 18:15:00,
2013-01-16 13:20:00,34.9,24.0,29.75,South,186,3.1,5.8,64,0.00,,BKN200,0.00,VWS V14.01,2013-01-16 18:20:00,
2013-01-16 13:25:00,34.9,24.0,29.75,WNW,289,7.6,7.6,64,0.00,,BKN200,0.00,VWS V14.01,2013-01-16 18:25:00,
2013-01-16 13:30:00,35.2,24.7,29.75,WSW,249,4.0,6.3,65,0.00,,BKN200,0.00,VWS V14.01,2013-01-16 18:30:00,
2013-01-16 13:35:00,35.1,23.8,29.75,WNW,282,5.4,5.4,63,0.00,,BKN200,0.00,VWS V14.01,2013-01-16 18:35:00,
2013-01-16 13:41:00,35.2,23.9,29.75,West,278,4.0,4.0,63,0.00,,BKN200,0.00,VWS V14.01,2013-01-16 18:41:00,
2013-01-16 13:46:00,35.4,24.5,29.75,West,268,3.1,4.9,64,0.00,,BKN200,0.00,VWS V14.01,2013-01-16 18:46:00,
2013-01-16 13:51:00,35.4,24.1,29.75,WSW,253,4.0,7.6,63,0.00,,BKN200,0.00,VWS V14.01,2013-01-16 18:51:00,
2013-01-16 13:56:00,35.6,23.9,29.75,West,263,8.7,10.1,62,0.00,,BKN200,0.00,VWS V14.01,2013-01-16 18:56:00,
2013-01-16 14:01:00,35.8,24.0,29.75,WNW,295,4.9,10.1,62,0.00,,BKN200,0.00,VWS V14.01,2013-01-16 19:01:00,
2013-01-16 14:06:00,35.6,23.9,29.75,SW,219,8.3,13.2,62,0.00,,BKN200,0.00,VWS V14.01,2013-01-16 19:06:00,
2013-01-16 14:11:00,35.6,23.9,29.75,SW,229,8.1,13.2,62,0.00,,BKN200,0.00,VWS V14.01,2013-01-16 19:11:00,
2013-01-16 14:16:00,35.8,24.0,29.75,WNW,289,5.8,5.8,62,0.00,,BKN200,0.00,VWS V14.01,2013-01-16 19:16:00,
2013-01-16 14:21:00,35.8,23.7,29.75,WSW,241,5.4,5.4,61,0.00,,BKN200,0.00,VWS V14.01,2013-01-16 19:21:00,
2013-01-16 14:26:00,36.1,24.0,29.75,WSW,237,4.0,10.1,61,0.00,,BKN200,0.00,VWS V14.01,2013-01-16 19:26:00,
2013-01-16 14:31:00,36.1,24.0,29.75,SW,234,10.1,12.3,61,0.00,,BKN200,0.00,VWS V14.01,2013-01-16 19:31:00,
2013-01-16 14:36:00,36.1,23.6,29.75,SW,220,9.6,15.4,60,0.00,,BKN200,0.00,VWS V14.01,2013-01-16 19:36:00,
2013-01-16 14:41:00,36.1,23.6,29.75,SW,231,6.3,8.7,60,0.00,,BKN200,0.00,VWS V14.01,2013-01-16 19:41:00,
2013-01-16 14:46:00,36.1,23.6,29.75,SSW,213,14.5,14.5,60,0.00,,BKN200,0.00,VWS V14.01,2013-01-16 19:46:00,
2013-01-16 14:51:00,36.0,23.4,29.75,WSW,237,11.0,11.0,60,0.00,,BKN200,0.00,VWS V14.01,2013-01-16 19:51:00,
2013-01-16 14:56:00,36.1,23.6,29.75,SW,222,5.4,8.3,60,0.00,,BKN200,0.00,VWS V14.01,2013-01-16 19:56:00,
2013-01-16 15:01:00,36.0,23.0,29.75,WSW,239,10.5,10.5,59,0.00,,BKN250,0.00,VWS V14.01,2013-01-16 20:01:00,
2013-01-16 15:06:00,35.8,22.9,29.75,SSE,156,8.7,8.7,59,0.00,,BKN250,0.00,VWS V14.01,2013-01-16 20:06:00,
2013-01-16 15:11:00,35.4,22.5,29.75,NW,320,8.7,8.7,59,0.00,,BKN250,0.00,VWS V14.01,2013-01-16 20:11:00,
2013-01-16 15:16:00,35.2,22.8,29.75,WSW,250,12.8,14.5,60,0.00,,BKN250,0.00,VWS V14.01,2013-01-16 20:16:00,
2013-01-16 15:21:00,35.2,23.1,29.75,West,277,4.9,10.5,61,0.00,,BKN250,0.00,VWS V14.01,2013-01-16 20:21:00,
2013-01-16 15:26:00,35.2,23.1,29.75,SSW,203,5.4,7.6,61,0.00,,BKN250,0.00,VWS V14.01,2013-01-16 20:26:00,
2013-01-16 15:31:00,35.2,23.1,29.75,WSW,258,6.3,12.8,61,0.00,,BKN250,0.00,VWS V14.01,2013-01-16 20:31:00,
2013-01-16 15:36:00,35.4,22.9,29.75,SSW,211,8.7,8.7,60,0.00,,BKN250,0.00,VWS V14.01,2013-01-16 20:36:00,
2013-01-16 15:41:00,35.1,22.6,29.75,West,266,3.6,5.4,60,0.00,,BKN250,0.00,VWS V14.01,2013-01-16 20:41:00,
2013-01-16 15:46:00,35.1,22.6,29.75,WNW,289,8.1,11.0,60,0.00,,BKN250,0.00,VWS V14.01,2013-01-16 20:46:00,
2013-01-16 15:51:00,34.9,22.8,29.75,SSW,210,8.1,12.3,61,0.00,,BKN250,0.00,VWS V14.01,2013-01-16 20:51:00,
2013-01-16 15:56:00,34.9,22.8,29.75,SW,215,8.3,8.3,61,0.00,,BKN250,0.00,VWS V14.01,2013-01-16 20:56:00,
2013-01-16 16:01:00,34.7,23.0,29.75,WSW,243,5.8,5.8,62,0.00,,BKN200,0.00,VWS V14.01,2013-01-16 21:01:00,
2013-01-16 16:06:00,34.7,23.0,29.75,WSW,242,8.7,8.7,62,0.00,,BKN200,0.00,VWS V14.01,2013-01-16 21:06:00,
2013-01-16 16:11:00,34.7,23.0,29.75,WSW,237,8.3,14.5,62,0.00,,BKN200,0.00,VWS V14.01,2013-01-16 21:11:00,
2013-01-16 16:16:00,34.5,22.9,29.75,SW,231,12.3,12.3,62,0.00,,BKN200,0.00,VWS V14.01,2013-01-16 21:16:00,
2013-01-16 16:21:00,34.3,22.7,29.75,SW,220,5.8,8.7,62,0.00,,BKN200,0.00,VWS V14.01,2013-01-16 21:21:00,
2013-01-16 16:26:00,34.3,22.7,29.75,SW,233,5.8,9.6,62,0.00,,BKN200,0.00,VWS V14.01,2013-01-16 21:26:00,
2013-01-16 16:31:00,34.2,22.9,29.75,SSW,210,6.3,8.7,63,0.00,,BKN200,0.00,VWS V14.01,2013-01-16 21:31:00,
2013-01-16 16:36:00,34.0,22.4,29.75,SW,228,4.9,8.3,62,0.00,,BKN200,0.00,VWS V14.01,2013-01-16 21:36:00,
2013-01-16 16:41:00,34.0,22.4,29.75,West,259,8.7,9.6,62,0.00,,BKN200,0.00,VWS V14.01,2013-01-16 21:41:00,
2013-01-16 16:47:00,33.8,21.8,29.75,SW,220,14.1,16.8,61,0.00,,BKN200,0.00,VWS V14.01,2013-01-16 21:47:00,
2013-01-16 16:52:00,33.8,21.4,29.75,WSW,238,11.0,11.0,60,0.00,,BKN200,0.00,VWS V14.01,2013-01-16 21:52:00,
2013-01-16 16:57:00,33.6,21.2,29.75,SW,216,11.0,15.4,60,0.00,,BKN200,0.00,VWS V14.01,2013-01-16 21:57:00,
2013-01-16 17:02:00,33.4,21.5,29.75,WSW,247,11.0,17.4,61,0.00,,BKN200,0.00,VWS V14.01,2013-01-16 22:02:00,
2013-01-16 17:07:00,33.4,21.5,29.75,WSW,258,5.4,5.8,61,0.00,,BKN200,0.00,VWS V14.01,2013-01-16 22:07:00,
2013-01-16 17:12:00,33.3,21.7,29.75,SW,232,10.5,12.8,62,0.00,,BKN200,0.00,VWS V14.01,2013-01-16 22:12:00,
2013-01-16 17:17:00,33.1,21.5,29.75,WSW,257,8.1,8.7,62,0.00,,BKN200,0.00,VWS V14.01,2013-01-16 22:17:00,
2013-01-16 17:22:00,33.1,21.9,29.75,SW,219,7.6,11.0,63,0.00,,BKN200,0.00,VWS V14.01,2013-01-16 22:22:00,
2013-01-16 17:27:00,32.9,21.7,29.75,WSW,243,8.3,8.3,63,0.00,,BKN200,0.00,VWS V14.01,2013-01-16 22:27:00,
2013-01-16 17:32:00,32.7,21.5,29.75,SSW,195,8.3,8.3,63,0.00,,BKN200,0.00,VWS V14.01,2013-01-16 22:32:00,
2013-01-16 17:37:00,32.7,21.9,29.75,SW,220,12.8,12.8,64,0.00,,BKN200,0.00,VWS V14.01,2013-01-16 22:37:00,
2013-01-16 17:42:00,32.7,21.9,29.75,SW,225,4.9,4.9,64,0.00,,BKN200,0.00,VWS V14.01,2013-01-16 22:42:00,
2013-01-16 17:47:00,32.5,21.7,29.75,WSW,240,4.5,8.3,64,0.00,,BKN200,0.00,VWS V14.01,2013-01-16 22:47:00,
2013-01-16 17:52:00,32.5,22.1,29.75,WSW,247,5.4,8.7,65,0.00,,BKN200,0.00,VWS V14.01,2013-01-16 22:52:00,
2013-01-16 17:57:00,32.4,21.9,29.75,WSW,243,13.6,13.6,65,0.00,,BKN200,0.00,VWS V14.01,2013-01-16 22:57:00,
2013-01-16 18:02:00,32.4,21.6,29.75,WSW,238,8.7,8.7,64,0.00,,BKN220,0.00,VWS V14.01,2013-01-16 23:02:00,
2013-01-16 18:07:00,32.2,21.4,29.75,West,268,9.6,9.6,64,0.00,,BKN220,0.00,VWS V14.01,2013-01-16 23:07:00,
2013-01-16 18:12:00,32.2,21.4,29.75,SSW,212,7.6,7.6,64,0.00,,BKN220,0.00,VWS V14.01,2013-01-16 23:12:00,
2013-01-16 18:17:00,32.2,21.0,29.75,SSW,210,8.7,8.7,63,0.00,,BKN220,0.00,VWS V14.01,2013-01-16 23:17:00,
2013-01-16 18:22:00,32.2,20.6,29.75,SW,215,11.0,11.0,62,0.00,,BKN220,0.00,VWS V14.01,2013-01-16 23:22:00,
2013-01-16 18:27:00,32.0,20.5,29.75,SW,218,8.1,9.6,62,0.00,,BKN220,0.00,VWS V14.01,2013-01-16 23:27:00,
2013-01-16 18:32:00,32.0,20.1,29.75,West,261,8.3,12.8,61,0.00,,SCT220,0.00,VWS V14.01,2013-01-16 23:32:00,
2013-01-16 18:37:00,32.0,19.7,29.75,SSW,204,8.3,13.2,60,0.00,,SCT220,0.00,VWS V14.01,2013-01-16 23:37:00,
2013-01-16 18:42:00,32.0,19.7,29.75,WSW,257,8.3,11.9,60,0.00,,SCT220,0.00,VWS V14.01,2013-01-16 23:42:00,
2013-01-16 18:47:00,32.0,19.7,29.75,West,268,13.6,13.6,60,0.00,,SCT220,0.00,VWS V14.01,2013-01-16 23:47:00,
2013-01-16 18:52:00,32.0,19.7,29.78,SSW,212,14.5,16.3,60,0.00,,SCT220,0.00,VWS V14.01,2013-01-16 23:52:00,
2013-01-16 18:57:00,32.0,19.7,29.78,West,259,13.6,14.1,60,0.00,,SCT220,0.00,VWS V14.01,2013-01-16 23:57:00,
2013-01-16 19:02:00,31.8,19.5,29.78,WSW,256,8.3,8.3,60,0.00,,SCT220,0.00,VWS V14.01,2013-01-17 00:02:00,
2013-01-16 19:08:00,32.0,19.7,29.75,WSW,244,8.7,16.3,60,0.00,,SCT220,0.00,VWS V14.01,2013-01-17 00:08:00,
2013-01-16 19:13:00,32.0,19.7,29.75,West,265,7.6,8.1,60,0.00,,SCT220,0.00,VWS V14.01,2013-01-17 00:13:00,
2013-01-16 19:18:00,32.0,19.7,29.75,WSW,253,12.8,12.8,60,0.00,,SCT220,0.00,VWS V14.01,2013-01-17 00:18:00,
2013-01-16 19:23:00,32.0,20.1,29.75,SSW,204,5.4,10.5,61,0.00,,SCT220,0.00,VWS V14.01,2013-01-17 00:23:00,
2013-01-16 19:28:00,32.2,20.3,29.75,SW,225,11.9,11.9,61,0.00,,SCT220,0.00,VWS V14.01,2013-01-17 00:28:00,
2013-01-16 19:33:00,32.0,20.5,29.75,SSW,212,11.0,11.0,62,0.00,,SCT220,0.00,VWS V14.01,2013-01-17 00:33:00,
2013-01-16 19:38:00,32.0,20.5,29.75,SW,234,8.3,15.0,62,0.00,,SCT220,0.00,VWS V14.01,2013-01-17 00:38:00,
2013-01-16 19:43:00,32.0,20.5,29.75,SW,223,13.2,13.2,62,0.00,,SCT220,0.00,VWS V14.01,2013-01-17 00:43:00,
2013-01-16 19:48:00,31.8,20.3,29.75,SW,230,7.6,11.0,62,0.00,,SCT220,0.00,VWS V14.01,2013-01-17 00:48:00,
2013-01-16 19:53:00,32.0,20.1,29.78,SW,226,8.1,13.2,61,0.00,,SCT220,0.00,VWS V14.01,2013-01-17 00:53:00,
2013-01-16 19:58:00,31.8,19.9,29.78,WSW,253,5.4,10.5,61,0.00,,SCT220,0.00,VWS V14.01,2013-01-17 00:58:00,
2013-01-16 20:03:00,31.8,19.5,29.78,SSE,156,8.3,8.3,60,0.00,,SCT220,0.00,VWS V14.01,2013-01-17 01:03:00,
2013-01-16 20:08:00,31.8,19.5,29.78,SSW,202,8.1,10.1,60,0.00,,SCT220,0.00,VWS V14.01,2013-01-17 01:08:00,
2013-01-16 20:13:00,31.8,19.1,29.78,NE,49,8.1,12.8,59,0.00,,SCT220,0.00,VWS V14.01,2013-01-17 01:13:00,
2013-01-16 20:18:00,31.6,18.6,29.78,SW,234,5.4,8.3,58,0.00,,SCT220,0.00,VWS V14.01,2013-01-17 01:18:00,
2013-01-16 20:23:00,31.6,18.6,29.75,West,278,5.8,8.1,58,0.00,,SCT220,0.00,VWS V14.01,2013-01-17 01:23:00,
2013-01-16 20:28:00,31.8,18.7,29.75,SW,216,8.3,8.3,58,0.00,,SCT220,0.00,VWS V14.01,2013-01-17 01:28:00,
2013-01-16 20:33:00,31.6,18.6,29.75,SW,220,10.5,10.5,58,0.00,,SCT220,0.00,VWS V14.01,2013-01-17 01:33:00,
2013-01-16 20:38:00,31.6,18.6,29.75,WSW,243,5.8,5.8,58,0.00,,SCT220,0.00,VWS V14.01,2013-01-17 01:38:00,
2013-01-16 20:43:00,31.8,17.9,29.75,WSW,252,5.8,5.8,56,0.00,,SCT220,0.00,VWS V14.01,2013-01-17 01:43:00,
2013-01-16 20:48:00,32.0,17.7,29.75,West,277,9.6,13.2,55,0.00,,SCT220,0.00,VWS V14.01,2013-01-17 01:48:00,
2013-01-16 20:53:00,31.8,17.5,29.78,WSW,251,4.0,8.7,55,0.00,,SCT220,0.00,VWS V14.01,2013-01-17 01:53:00,
2013-01-16 20:58:00,32.2,17.0,29.78,WSW,258,16.3,16.3,53,0.00,,SCT220,0.00,VWS V14.01,2013-01-17 01:58:00,
2013-01-16 21:03:00,32.4,17.1,29.78,SW,217,5.8,8.3,53,0.00,,BKN220,0.00,VWS V14.01,2013-01-17 02:03:00,
2013-01-16 21:08:00,32.5,16.9,29.78,SW,230,5.4,8.3,52,0.00,,BKN220,0.00,VWS V14.01,2013-01-17 02:08:00,
2013-01-16 21:13:00,32.5,16.9,29.78,WSW,249,17.9,17.9,52,0.00,,BKN220,0.00,VWS V14.01,2013-01-17 02:13:00,
2013-01-16 21:18:00,32.7,16.6,29.78,SW,224,6.3,11.0,51,0.00,,BKN220,0.00,VWS V14.01,2013-01-17 02:18:00,
2013-01-16 21:23:00,32.9,16.8,29.78,SW,214,6.3,11.0,51,0.00,,BKN220,0.00,VWS V14.01,2013-01-17 02:23:00,
2013-01-16 21:28:00,32.9,16.8,29.78,SW,218,8.1,8.1,51,0.00,,BKN220,0.00,VWS V14.01,2013-01-17 02:28:00,
2013-01-16 21:33:00,33.1,16.9,29.78,WNW,290,11.0,11.0,51,0.00,,BKN200,0.00,VWS V14.01,2013-01-17 02:33:00,
2013-01-16 21:39:00,33.1,16.9,29.78,SSW,206,8.1,8.1,51,0.00,,BKN200,0.00,VWS V14.01,2013-01-17 02:39:00,
2013-01-16 21:44:00,33.3,17.1,29.78,SW,230,9.6,11.9,51,0.00,,BKN200,0.00,VWS V14.01,2013-01-17 02:44:00,
2013-01-16 21:49:00,33.3,17.1,29.78,SW,225,10.1,10.1,51,0.00,,BKN200,0.00,VWS V14.01,2013-01-17 02:49:00,
2013-01-16 21:54:00,33.3,17.1,29.78,SW,228,10.1,10.1,51,0.00,,BKN200,0.00,VWS V14.01,2013-01-17 02:54:00,
2013-01-16 21:59:00,33.4,17.3,29.78,WSW,248,4.0,17.0,51,0.00,,BKN200,0.00,VWS V14.01,2013-01-17 02:59:00,
2013-01-16 22:04:00,33.4,17.7,29.78,SW,219,10.5,14.5,52,0.00,,BKN200,0.00,VWS V14.01,2013-01-17 03:04:00,
2013-01-16 22:09:00,33.8,17.6,29.78,WSW,253,8.3,20.1,51,0.00,,BKN200,0.00,VWS V14.01,2013-01-17 03:09:00,
2013-01-16 22:14:00,33.8,18.0,29.78,WSW,247,8.3,17.4,52,0.00,,BKN200,0.00,VWS V14.01,2013-01-17 03:14:00,
2013-01-16 22:19:00,33.8,18.0,29.78,WSW,240,8.3,17.4,52,0.00,,BKN200,0.00,VWS V14.01,2013-01-17 03:19:00,
2013-01-16 22:24:00,34.0,18.2,29.78,NW,319,10.5,10.5,52,0.00,,BKN200,0.00,VWS V14.01,2013-01-17 03:24:00,
2013-01-16 22:29:00,34.0,18.2,29.78,WNW,283,19.2,19.2,52,0.00,,BKN200,0.00,VWS V14.01,2013-01-17 03:29:00,
2013-01-16 22:34:00,34.2,18.4,29.78,WSW,252,12.8,13.6,52,0.00,,,0.00,VWS V14.01,2013-01-17 03:34:00,
2013-01-16 22:39:00,34.2,18.4,29.78,West,262,6.3,15.0,52,0.00,,,0.00,VWS V14.01,2013-01-17 03:39:00,
2013-01-16 22:44:00,34.0,18.7,29.78,SSE,166,8.1,10.5,53,0.00,,,0.00,VWS V14.01,2013-01-17 03:44:00,
2013-01-16 22:49:00,34.2,18.8,29.78,NW,304,9.2,9.2,53,0.00,,,0.00,VWS V14.01,2013-01-17 03:49:00,
2013-01-16 22:54:00,34.2,18.8,29.78,WNW,288,10.5,12.8,53,0.00,,,0.00,VWS V14.01,2013-01-17 03:54:00,
2013-01-16 22:59:00,34.0,19.1,29.78,West,259,9.6,9.6,54,0.00,,,0.00,VWS V14.01,2013-01-17 03:59:00,
2013-01-16 23:04:00,34.2,19.3,29.78,WNW,300,10.1,14.1,54,0.00,,,0.00,VWS V14.01,2013-01-17 04:04:00,
2013-01-16 23:09:00,34.2,19.3,29.78,West,272,8.1,11.4,54,0.00,,,0.00,VWS V14.01,2013-01-17 04:09:00,
2013-01-16 23:14:00,34.2,19.7,29.78,SW,214,5.8,5.8,55,0.00,,,0.00,VWS V14.01,2013-01-17 04:14:00,
2013-01-16 23:19:00,34.2,20.1,29.78,WNW,292,17.0,17.0,56,0.00,,,0.00,VWS V14.01,2013-01-17 04:19:00,
2013-01-16 23:24:00,34.2,20.1,29.78,West,278,12.8,12.8,56,0.00,,,0.00,VWS V14.01,2013-01-17 04:24:00,
2013-01-16 23:29:00,34.0,21.6,29.78,West,259,21.9,21.9,60,0.00,,,0.00,VWS V14.01,2013-01-17 04:29:00,
2013-01-16 23:34:00,33.8,22.2,29.78,West,265,11.0,15.0,62,0.00,,,0.00,VWS V14.01,2013-01-17 04:34:00,
2013-01-16 23:39:00,33.6,22.8,29.78,WSW,257,5.4,8.7,64,0.00,,,0.00,VWS V14.01,2013-01-17 04:39:00,
2013-01-16 23:44:00,33.4,23.0,29.78,SW,234,12.3,13.2,65,0.00,,,0.00,VWS V14.01,2013-01-17 04:44:00,
2013-01-16 23:49:00,33.3,23.5,29.78,WSW,256,14.1,14.1,67,0.00,,,0.00,VWS V14.01,2013-01-17 04:49:00,
2013-01-16 23:54:00,33.3,23.5,29.78,SW,235,7.6,16.3,67,0.00,,,0.00,VWS V14.01,2013-01-17 04:54:00,